TimeMDT,TemperatureF,Dew PointF,Humidity,Sea Level PressureIn,VisibilityMPH,Wind Direction,Wind SpeedMPH,Gust SpeedMPH,PrecipitationIn,Events,Conditions,WindDirDegrees,DateUTC
12:15 AM,30.2,12.2,47,30.08,10.0,Calm,Calm,-,N/A,,Clear,0,2014-03-20 06:15:00
12:35 AM,28.4,12.2,51,30.08,10.0,SSE,4.6,-,N/A,,Clear,160,2014-03-20 06:35:00
12:55 AM,26.6,12.2,55,30.08,10.0,Calm,Calm,-,N/A,,Clear,0,2014-03-20 06:55:00
1:15 AM,24.8,12.2,59,30.07,10.0,Calm,Calm,-,N/A,,Clear,0,2014-03-20 07:15:00
1:35 AM,26.6,14.0,59,30.07,10.0,Calm,Calm,-,N/A,,Clear,0,2014-03-20 07:35:00
1:55 AM,24.8,14.0,64,30.06,10.0,Calm,Calm,-,N/A,,Clear,0,2014-03-20 07:55:00
2:15 AM,23.0,14.0,68,30.06,10.0,Calm,Calm,-,N/A,,Clear,0,2014-03-20 08:15:00
2:35 AM,19.4,12.2,74,30.06,10.0,Calm,Calm,-,N/A,,Clear,0,2014-03-20 08:35:00
2:55 AM,21.2,12.2,68,30.06,10.0,NNW,3.5,-,N/A,,Clear,330,2014-03-20 08:55:00
3:15 AM,19.4,12.2,74,30.04,10.0,Calm,Calm,-,N/A,,Clear,0,2014-03-20 09:15:00
3:35 AM,19.4,12.2,74,30.04,10.0,Calm,Calm,-,N/A,,Clear,0,2014-03-20 09:35:00
3:55 AM,21.2,12.2,68,30.04,10.0,NE,3.5,-,N/A,,Clear,40,2014-03-20 09:55:00
4:15 AM,21.2,12.2,68,30.02,10.0,Calm,Calm,-,N/A,,Clear,0,2014-03-20 10:15:00
4:35 AM,19.4,12.2,74,30.02,10.0,NW,4.6,-,N/A,,Clear,320,2014-03-20 10:35:00
4:55 AM,21.2,12.2,68,30.02,10.0,North,4.6,-,N/A,,Clear,350,2014-03-20 10:55:00
5:15 AM,19.4,12.2,74,30.02,10.0,Calm,Calm,-,N/A,,Clear,0,2014-03-20 11:15:00
5:35 AM,21.2,12.2,68,30.02,10.0,Calm,Calm,-,N/A,,Clear,0,2014-03-20 11:35:00
5:55 AM,19.4,12.2,74,30.01,10.0,Calm,Calm,-,N/A,,Clear,0,2014-03-20 11:55:00
6:15 AM,17.6,10.4,73,30.01,10.0,Calm,Calm,-,N/A,,Clear,0,2014-03-20 12:15:00
6:35 AM,17.6,10.4,73,30.01,10.0,North,-9999.0,-,N/A,,Clear,0,2014-03-20 12:35:00
6:55 AM,19.4,12.2,74,30.00,10.0,Calm,Calm,-,N/A,,Clear,0,2014-03-20 12:55:00
7:15 AM,17.6,10.4,73,30.00,10.0,Calm,Calm,-,N/A,,Clear,0,2014-03-20 13:15:00
7:35 AM,19.4,12.2,74,30.00,10.0,Calm,Calm,-,N/A,,Clear,0,2014-03-20 13:35:00
7:55 AM,19.4,10.4,68,30.01,10.0,Calm,Calm,-,N/A,,Clear,0,2014-03-20 13:55:00
8:15 AM,19.4,12.2,74,30.00,10.0,ENE,3.5,-,N/A,,Clear,70,2014-03-20 14:15:00
8:35 AM,19.4,12.2,74,30.01,10.0,Calm,Calm,-,N/A,,Clear,0,2014-03-20 14:35:00
8:55 AM,23.0,12.2,63,30.00,10.0,WNW,5.8,-,N/A,,Clear,290,2014-03-20 14:55:00
9:15 AM,24.8,14.0,64,29.99,10.0,WNW,4.6,-,N/A,,Clear,290,2014-03-20 15:15:00
9:35 AM,26.6,14.0,59,29.99,10.0,WNW,5.8,-,N/A,,Clear,300,2014-03-20 15:35:00
9:55 AM,28.4,15.8,59,29.99,10.0,NW,8.1,-,N/A,,Clear,310,2014-03-20 15:55:00
10:15 AM,28.4,17.6,64,29.99,10.0,WNW,3.5,-,N/A,,Clear,300,2014-03-20 16:15:00
10:35 AM,28.4,17.6,64,29.99,10.0,WNW,3.5,-,N/A,,Clear,300,2014-03-20 16:35:00
10:55 AM,28.4,19.4,69,29.99,10.0,Calm,Calm,-,N/A,,Clear,0,2014-03-20 16:55:00
11:15 AM,35.6,19.4,52,29.98,10.0,SE,3.5,-,N/A,,Clear,140,2014-03-20 17:15:00
11:35 AM,41.0,12.2,31,29.98,10.0,SSE,5.8,-,N/A,,Clear,150,2014-03-20 17:35:00
11:56 AM,41.0,14.0,33,29.97,10.0,South,3.5,-,N/A,,Clear,180,2014-03-20 17:56:00
12:15 PM,41.0,14.0,33,29.97,10.0,South,5.8,-,N/A,,Clear,170,2014-03-20 18:15:00
12:35 PM,41.0,10.4,29,29.97,10.0,Calm,Calm,-,N/A,,Clear,0,2014-03-20 18:35:00
12:55 PM,42.8,10.4,27,29.97,10.0,Calm,Calm,-,N/A,,Clear,0,2014-03-20 18:55:00
1:15 PM,41.0,14.0,33,29.97,10.0,SW,4.6,-,N/A,,Clear,230,2014-03-20 19:15:00
1:35 PM,42.8,14.0,31,29.95,10.0,WSW,8.1,-,N/A,,Clear,240,2014-03-20 19:35:00
1:55 PM,42.8,12.2,29,29.94,10.0,SW,5.8,-,N/A,,Clear,230,2014-03-20 19:55:00
2:15 PM,42.8,14.0,31,29.94,10.0,SW,8.1,-,N/A,,Clear,230,2014-03-20 20:15:00
2:35 PM,44.6,17.6,34,29.93,10.0,SW,9.2,-,N/A,,Clear,230,2014-03-20 20:35:00
2:55 PM,44.6,17.6,34,29.93,10.0,SW,6.9,-,N/A,,Clear,230,2014-03-20 20:55:00
3:15 PM,44.6,19.4,37,29.93,10.0,SW,9.2,-,N/A,,Clear,230,2014-03-20 21:15:00
3:35 PM,44.6,17.6,34,29.93,10.0,Calm,Calm,-,N/A,,Clear,0,2014-03-20 21:35:00
3:55 PM,44.6,19.4,37,29.92,10.0,NNW,3.5,17.3,N/A,,Clear,330,2014-03-20 21:55:00
4:15 PM,44.6,19.4,37,29.92,10.0,West,6.9,-,N/A,,Clear,260,2014-03-20 22:15:00
4:35 PM,44.6,19.4,37,29.92,10.0,WNW,11.5,19.6,N/A,,Clear,290,2014-03-20 22:35:00
4:55 PM,42.8,21.2,42,29.92,10.0,West,11.5,17.3,N/A,,Clear,280,2014-03-20 22:55:00
5:15 PM,42.8,17.6,36,29.92,10.0,West,19.6,24.2,N/A,,Clear,260,2014-03-20 23:15:00
5:35 PM,42.8,19.4,39,29.92,10.0,West,12.7,19.6,N/A,,Clear,270,2014-03-20 23:35:00
5:55 PM,41.0,19.4,42,29.92,10.0,West,11.5,18.4,N/A,,Clear,270,2014-03-20 23:55:00
6:15 PM,41.0,19.4,42,29.93,10.0,West,13.8,19.6,N/A,,Clear,270,2014-03-21 00:15:00
6:35 PM,39.2,19.4,45,29.93,10.0,West,9.2,-,N/A,,Clear,280,2014-03-21 00:35:00
6:55 PM,37.4,19.4,48,29.94,10.0,West,6.9,-,N/A,,Clear,270,2014-03-21 00:55:00
7:15 PM,35.6,17.6,48,29.94,10.0,West,5.8,-,N/A,,Clear,270,2014-03-21 01:15:00
7:35 PM,33.8,19.4,56,29.94,10.0,NNE,4.6,-,N/A,,Clear,20,2014-03-21 01:35:00
7:55 PM,33.8,17.6,52,29.94,10.0,Calm,Calm,-,N/A,,Clear,0,2014-03-21 01:55:00
8:15 PM,32.0,19.4,60,29.94,10.0,NE,5.8,-,N/A,,Clear,40,2014-03-21 02:15:00
8:35 PM,32.0,19.4,60,29.96,10.0,NE,4.6,-,N/A,,Clear,40,2014-03-21 02:35:00
8:55 PM,32.0,17.6,55,29.97,10.0,Calm,Calm,-,N/A,,Clear,0,2014-03-21 02:55:00
9:15 PM,32.0,17.6,55,29.98,10.0,ENE,5.8,-,N/A,,Clear,60,2014-03-21 03:15:00
9:35 PM,32.0,17.6,55,29.99,10.0,NNE,4.6,-,N/A,,Clear,30,2014-03-21 03:35:00
9:55 PM,32.0,17.6,55,29.99,10.0,Calm,Calm,-,N/A,,Clear,0,2014-03-21 03:55:00
10:15 PM,32.0,15.8,51,29.99,10.0,North,8.1,-,N/A,,Scattered Clouds,350,2014-03-21 04:15:00
10:35 PM,30.2,15.8,55,30.00,10.0,North,9.2,-,N/A,,Clear,350,2014-03-21 04:35:00
10:55 PM,30.2,15.8,55,30.00,10.0,NNW,5.8,-,N/A,,Clear,340,2014-03-21 04:55:00
11:15 PM,30.2,15.8,55,30.01,10.0,North,8.1,-,N/A,,Clear,350,2014-03-21 05:15:00
11:35 PM,28.4,14.0,55,30.02,10.0,North,-9999.0,-,N/A,,Clear,0,2014-03-21 05:35:00
11:55 PM,28.4,12.2,51,30.02,10.0,NNE,6.9,-,N/A,,Clear,20,2014-03-21 05:55:00